sat.trackr.live / text

‹ back to catalog

PRAETORIAN SDA_617

NORAD 65580 · 2025-203R

PAYLOAD ACTIVE UNKNOWN

§ Identity

Operator
Country
US
Launch date
2025-09-10
Launch site
AFWTR
Launch vehicle
Mass (kg)
RCS (m²)

Purposes: military

External: N2YO · Heavens-Above · Gunter

§ Orbital elements

Epoch: 2026-09-19T18:25:21.725184Z

Period
104.11 min
Inclination
81.3004°
Eccentricity
0.0006380
Mean motion
13.83157040 rev/d
Perigee alt
948.0 km
Apogee alt
957.4 km
Semi-major
7,330.8 km
B*
4.7087e-5
RAAN
283.4812°
Arg perigee
299.1410°
Mean anomaly
60.9107°
Rev number
5,176

§ Raw data

PRAETORIAN SDA_6171 65580U 25203R   26262.76761256  .00000063  00000+0  47087-4 0  99922 65580  81.3004 283.4812 0006380 299.1410  60.9107 13.83157040 51767

JSON: /api/v1/satellites/65580 · /tle

For live sub-satellite position, see the globe view (requires WebGL).

§ Visibility from observer

Set your observer location to see the next 7 days of passes ≥ 10°. The values pass through the URL so the page stays shareable.

No JS? Fill the form by hand. The geolocation button needs JavaScript.